Time,TemperatureF,DewpointF,PressureIn,WindDirection,WindDirectionDegrees,WindSpeedMPH,WindSpeedGustMPH,Humidity,HourlyPrecipIn,Conditions,Clouds,dailyrainin,SoftwareType,DateUTC
2013-04-11 00:04:00,61.6,30.6,29.91,West,265,0.0,0.0,31,0.00,,,0.00,Wunderground v.1.15,2013-04-11 07:04:00,
2013-04-11 00:09:00,61.5,31.3,29.91,WSW,243,0.0,0.0,32,0.00,,,0.00,Wunderground v.1.15,2013-04-11 07:09:00,
2013-04-11 00:15:00,61.2,31.1,29.91,NW,314,0.0,0.0,32,0.00,,,0.00,Wunderground v.1.15,2013-04-11 07:15:00,
2013-04-11 00:20:00,60.7,30.6,29.91,WNW,294,0.0,0.0,32,0.00,,,0.00,Wunderground v.1.15,2013-04-11 07:20:00,
2013-04-11 00:25:00,60.3,31.0,29.91,West,274,0.0,0.0,33,0.00,,,0.00,Wunderground v.1.15,2013-04-11 07:25:00,
2013-04-11 00:31:00,59.7,32.7,29.91,WNW,293,0.0,0.0,36,0.00,,,0.00,Wunderground v.1.15,2013-04-11 07:31:00,
2013-04-11 00:36:00,59.2,34.2,29.91,NW,325,0.0,0.0,39,0.00,,,0.00,Wunderground v.1.15,2013-04-11 07:36:00,
2013-04-11 00:42:00,58.7,36.2,29.91,NW,312,0.0,0.0,43,0.00,,,0.00,Wunderground v.1.15,2013-04-11 07:42:00,
2013-04-11 00:47:00,58.1,36.9,29.91,WNW,282,0.0,0.0,45,0.00,,,0.00,Wunderground v.1.15,2013-04-11 07:47:00,
2013-04-11 00:53:00,57.6,37.5,29.92,NW,315,0.0,0.0,47,0.00,,,0.00,Wunderground v.1.15,2013-04-11 07:53:00,
2013-04-11 00:58:00,57.1,38.1,29.91,NW,316,0.0,0.0,49,0.00,,,0.00,Wunderground v.1.15,2013-04-11 07:58:00,
2013-04-11 01:03:00,56.8,38.3,29.91,NW,326,0.0,0.0,50,0.00,,,0.00,Wunderground v.1.15,2013-04-11 08:03:00,
2013-04-11 01:08:00,56.5,38.1,29.91,NNW,328,0.0,0.0,50,0.00,,,0.00,Wunderground v.1.15,2013-04-11 08:08:00,
2013-04-11 01:13:00,56.1,38.2,29.91,NNW,336,0.0,0.0,51,0.00,,,0.00,Wunderground v.1.15,2013-04-11 08:13:00,
2013-04-11 01:19:00,55.7,38.8,29.91,NW,321,0.0,0.0,53,0.00,,,0.00,Wunderground v.1.15,2013-04-11 08:19:00,
2013-04-11 01:24:00,55.3,39.4,29.91,NW,319,0.0,0.0,55,0.00,,,0.00,Wunderground v.1.15,2013-04-11 08:24:00,
2013-04-11 01:29:00,55.0,40.0,29.91,NNW,331,0.0,0.0,57,0.00,,,0.00,Wunderground v.1.15,2013-04-11 08:29:00,
2013-04-11 01:35:00,54.6,40.1,29.91,North,349,0.0,0.0,58,0.00,,,0.00,Wunderground v.1.15,2013-04-11 08:35:00,
2013-04-11 01:40:00,54.4,39.9,29.91,NNE,14,0.0,0.0,58,0.00,,,0.00,Wunderground v.1.15,2013-04-11 08:40:00,
2013-04-11 01:46:00,54.2,40.2,29.91,North,353,0.0,0.0,59,0.00,,,0.00,Wunderground v.1.15,2013-04-11 08:46:00,
2013-04-11 01:51:00,54.1,40.1,29.91,North,357,0.0,0.0,59,0.00,,,0.00,Wunderground v.1.15,2013-04-11 08:51:00,
2013-04-11 01:57:00,53.8,40.2,29.92,NNW,333,0.0,0.0,60,0.00,,,0.00,Wunderground v.1.15,2013-04-11 08:57:00,
2013-04-11 02:02:00,53.7,40.6,29.92,NNW,345,0.0,0.0,61,0.00,,,0.00,Wunderground v.1.15,2013-04-11 09:02:00,
2013-04-11 02:08:00,53.4,40.7,29.92,NW,312,0.0,0.0,62,0.00,,,0.00,Wunderground v.1.15,2013-04-11 09:08:00,
2013-04-11 02:14:00,53.0,41.1,29.92,NW,321,0.0,0.0,64,0.00,,,0.00,Wunderground v.1.15,2013-04-11 09:14:00,
2013-04-11 02:20:00,52.5,42.2,29.92,NW,319,0.0,0.0,68,0.00,,,0.00,Wunderground v.1.15,2013-04-11 09:20:00,
2013-04-11 02:26:00,51.5,42.4,29.92,North,1,0.0,0.0,71,0.33,,,0.04,Wunderground v.1.15,2013-04-11 09:26:00,
2013-04-11 02:32:00,50.6,43.3,29.93,NW,312,0.0,0.0,76,0.17,,,0.06,Wunderground v.1.15,2013-04-11 09:32:00,
2013-04-11 02:38:00,50.0,43.7,29.92,NW,320,0.0,0.0,79,0.16,,,0.07,Wunderground v.1.15,2013-04-11 09:38:00,
2013-04-11 02:44:00,49.5,44.2,29.92,North,359,0.0,0.0,82,0.12,,,0.08,Wunderground v.1.15,2013-04-11 09:44:00,
2013-04-11 02:50:00,49.3,44.0,29.92,NNW,339,0.0,0.0,82,0.06,,,0.08,Wunderground v.1.15,2013-04-11 09:50:00,
2013-04-11 02:55:00,49.1,43.8,29.92,NW,323,0.0,0.0,82,0.06,,,0.09,Wunderground v.1.15,2013-04-11 09:55:00,
2013-04-11 03:00:00,49.0,44.1,29.92,NW,319,0.0,0.0,83,0.06,,,0.09,Wunderground v.1.15,2013-04-11 10:00:00,
2013-04-11 03:06:00,48.9,44.0,29.92,NNW,335,0.0,0.0,83,0.04,,,0.09,Wunderground v.1.15,2013-04-11 10:06:00,
2013-04-11 03:12:00,48.9,44.3,29.92,WNW,295,0.0,0.0,84,0.00,,,0.09,Wunderground v.1.15,2013-04-11 10:12:00,
2013-04-11 03:18:00,48.8,44.8,29.92,West,270,0.0,0.0,86,0.38,,,0.11,Wunderground v.1.15,2013-04-11 10:18:00,
2013-04-11 03:24:00,48.5,45.1,29.92,NW,318,0.0,0.0,88,0.15,,,0.12,Wunderground v.1.15,2013-04-11 10:24:00,
2013-04-11 03:29:00,48.4,44.7,29.92,NW,312,0.0,0.0,87,0.14,,,0.14,Wunderground v.1.15,2013-04-11 10:29:00,
2013-04-11 03:35:00,48.3,44.9,29.92,NW,311,0.0,2.0,88,0.09,,,0.14,Wunderground v.1.15,2013-04-11 10:35:00,
2013-04-11 03:41:00,48.1,44.7,29.92,NW,321,0.0,0.0,88,0.05,,,0.14,Wunderground v.1.15,2013-04-11 10:41:00,
2013-04-11 03:47:00,48.0,44.6,29.91,NW,326,0.0,1.0,88,0.04,,,0.15,Wunderground v.1.15,2013-04-11 10:47:00,
2013-04-11 03:53:00,47.8,44.1,29.91,NW,326,0.0,0.0,87,0.04,,,0.15,Wunderground v.1.15,2013-04-11 10:53:00,
2013-04-11 03:59:00,47.7,44.3,29.91,NW,316,0.0,0.0,88,0.04,,,0.15,Wunderground v.1.15,2013-04-11 10:59:00,
2013-04-11 04:04:00,47.5,44.4,29.91,NW,309,0.0,0.0,89,0.00,,,0.16,Wunderground v.1.15,2013-04-11 11:04:00,
2013-04-11 04:10:00,47.5,44.7,29.91,NW,309,0.0,0.0,90,0.12,,,0.17,Wunderground v.1.15,2013-04-11 11:10:00,
2013-04-11 04:15:00,47.3,44.5,29.91,NW,311,0.0,0.0,90,0.11,,,0.18,Wunderground v.1.15,2013-04-11 11:15:00,
2013-04-11 04:21:00,47.3,44.8,29.91,NW,324,0.0,0.0,91,0.06,,,0.18,Wunderground v.1.15,2013-04-11 11:21:00,
2013-04-11 04:26:00,47.2,44.7,29.92,WNW,288,0.0,0.0,91,0.06,,,0.19,Wunderground v.1.15,2013-04-11 11:26:00,
2013-04-11 04:32:00,47.2,44.7,29.92,West,265,0.0,0.0,91,0.06,,,0.19,Wunderground v.1.15,2013-04-11 11:32:00,
2013-04-11 04:37:00,47.1,44.6,29.92,WNW,283,0.0,0.0,91,0.06,,,0.20,Wunderground v.1.15,2013-04-11 11:37:00,
2013-04-11 04:42:00,47.0,44.5,29.92,NW,309,0.0,0.0,91,0.09,,,0.21,Wunderground v.1.15,2013-04-11 11:42:00,
2013-04-11 04:48:00,46.9,44.4,29.91,WNW,294,0.0,0.0,91,0.29,,,0.24,Wunderground v.1.15,2013-04-11 11:48:00,
2013-04-11 04:54:00,46.9,44.4,29.91,NW,326,0.0,0.0,91,0.18,,,0.25,Wunderground v.1.15,2013-04-11 11:54:00,
2013-04-11 05:00:00,46.7,44.2,29.91,NW,311,0.0,0.0,91,0.14,,,0.27,Wunderground v.1.15,2013-04-11 12:00:00,
2013-04-11 05:06:00,46.7,44.2,29.91,NNW,328,0.0,0.0,91,0.11,,,0.28,Wunderground v.1.15,2013-04-11 12:06:00,
2013-04-11 05:12:00,46.6,44.1,29.91,NW,323,0.0,0.0,91,0.10,,,0.29,Wunderground v.1.15,2013-04-11 12:12:00,
2013-04-11 05:18:00,46.5,44.3,29.91,WNW,297,0.0,0.0,92,0.09,,,0.29,Wunderground v.1.15,2013-04-11 12:18:00,
2013-04-11 05:23:00,46.5,44.3,29.91,WNW,303,0.0,0.0,92,0.08,,,0.30,Wunderground v.1.15,2013-04-11 12:23:00,
2013-04-11 05:29:00,46.4,44.5,29.92,NW,319,0.0,0.0,93,0.09,,,0.31,Wunderground v.1.15,2013-04-11 12:29:00,
2013-04-11 05:35:00,46.5,44.3,29.92,NW,325,0.0,0.0,92,0.06,,,0.31,Wunderground v.1.15,2013-04-11 12:35:00,
2013-04-11 05:42:00,46.5,44.0,29.92,NNW,338,0.0,0.0,91,0.04,,,0.31,Wunderground v.1.15,2013-04-11 12:42:00,
2013-04-11 05:47:00,46.5,41.9,29.92,NNW,335,0.0,0.0,84,0.00,,,0.31,Wunderground v.1.15,2013-04-11 12:47:00,
2013-04-11 05:52:00,46.1,40.6,29.92,NNW,335,0.0,0.0,81,0.00,,,0.31,Wunderground v.1.15,2013-04-11 12:52:00,
2013-04-11 05:58:00,45.5,39.0,29.92,NW,308,0.0,0.0,78,0.00,,,0.31,Wunderground v.1.15,2013-04-11 12:58:00,
2013-04-11 06:03:00,45.2,38.4,29.92,NNW,329,0.0,0.0,77,0.00,,,0.31,Wunderground v.1.15,2013-04-11 13:03:00,
2013-04-11 06:08:00,45.1,38.0,29.92,NW,321,0.0,0.0,76,0.00,,,0.31,Wunderground v.1.15,2013-04-11 13:08:00,
2013-04-11 06:13:00,45.1,37.6,29.92,NW,321,0.0,0.0,75,0.00,,,0.31,Wunderground v.1.15,2013-04-11 13:13:00,
2013-04-11 06:19:00,44.3,37.5,29.93,NW,312,0.0,0.0,77,0.00,,,0.31,Wunderground v.1.15,2013-04-11 13:19:00,
2013-04-11 06:24:00,44.3,37.5,29.93,NW,312,0.0,0.0,77,0.00,,,0.31,Wunderground v.1.15,2013-04-11 13:24:00,
2013-04-11 06:30:00,-999.9,-99.9,29.93,North,32767,-999.0,0.0,255,-99.99,,,0.31,Wunderground v.1.15,2013-04-11 13:30:00,
2013-04-11 06:35:00,-999.9,-99.9,29.93,North,32767,-999.0,0.0,255,-99.99,,,0.31,Wunderground v.1.15,2013-04-11 13:35:00,
2013-04-11 06:41:00,-999.9,-99.9,29.93,North,32767,-999.0,0.0,255,-99.99,,,0.31,Wunderground v.1.15,2013-04-11 13:41:00,
2013-04-11 06:47:00,-999.9,-99.9,29.94,North,32767,-999.0,0.0,255,-99.99,,,0.31,Wunderground v.1.15,2013-04-11 13:47:00,
2013-04-11 06:53:00,-999.9,-99.9,29.95,North,32767,-999.0,0.0,255,-99.99,,,0.31,Wunderground v.1.15,2013-04-11 13:53:00,
2013-04-11 06:58:00,-999.9,-99.9,29.94,North,32767,-999.0,0.0,255,-99.99,,,0.31,Wunderground v.1.15,2013-04-11 13:58:00,
2013-04-11 07:04:00,-999.9,-99.9,29.95,North,32767,-999.0,0.0,255,-99.99,,,0.31,Wunderground v.1.15,2013-04-11 14:04:00,
2013-04-11 07:10:00,-999.9,-99.9,29.95,North,32767,-999.0,0.0,255,-99.99,,,0.31,Wunderground v.1.15,2013-04-11 14:10:00,
2013-04-11 07:16:00,-999.9,-99.9,29.95,North,32767,-999.0,0.0,255,-99.99,,,0.31,Wunderground v.1.15,2013-04-11 14:16:00,
2013-04-11 07:21:00,-999.9,-99.9,29.96,North,32767,-999.0,0.0,255,-99.99,,,0.31,Wunderground v.1.15,2013-04-11 14:21:00,
2013-04-11 07:26:00,-999.9,-99.9,29.95,North,32767,-999.0,0.0,255,-99.99,,,0.31,Wunderground v.1.15,2013-04-11 14:26:00,
2013-04-11 07:32:00,-999.9,-99.9,29.95,North,32767,-999.0,0.0,255,-99.99,,,0.31,Wunderground v.1.15,2013-04-11 14:32:00,
2013-04-11 07:37:00,43.7,32.7,29.95,North,351,0.0,0.0,65,0.00,,,0.31,Wunderground v.1.15,2013-04-11 14:37:00,
2013-04-11 07:43:00,43.7,31.9,29.96,NW,325,0.0,0.0,63,0.00,,,0.31,Wunderground v.1.15,2013-04-11 14:43:00,
2013-04-11 07:48:00,43.5,31.7,29.96,NNW,328,0.0,0.0,63,0.00,,,0.31,Wunderground v.1.15,2013-04-11 14:48:00,
2013-04-11 07:54:00,43.5,32.1,29.95,NW,316,0.0,0.0,64,0.00,,,0.31,Wunderground v.1.15,2013-04-11 14:54:00,
2013-04-11 07:59:00,43.8,32.4,29.95,NNW,342,0.0,0.0,64,0.00,,,0.31,Wunderground v.1.15,2013-04-11 14:59:00,
2013-04-11 08:05:00,44.3,32.9,29.96,NNW,347,0.0,0.0,64,0.00,,,0.31,Wunderground v.1.15,2013-04-11 15:05:00,
2013-04-11 08:11:00,44.7,32.9,29.96,NNW,335,0.0,0.0,63,0.00,,,0.31,Wunderground v.1.15,2013-04-11 15:11:00,
2013-04-11 08:17:00,45.0,33.9,29.96,NNW,339,0.0,0.0,65,0.00,,,0.31,Wunderground v.1.15,2013-04-11 15:17:00,
2013-04-11 08:22:00,45.1,32.8,29.96,NNW,342,0.0,0.0,62,0.00,,,0.31,Wunderground v.1.15,2013-04-11 15:22:00,
2013-04-11 08:28:00,45.1,32.4,29.96,NNW,338,0.0,0.0,61,0.00,,,0.31,Wunderground v.1.15,2013-04-11 15:28:00,
2013-04-11 08:33:00,45.3,32.6,29.97,NNW,329,0.0,1.0,61,0.00,,,0.31,Wunderground v.1.15,2013-04-11 15:33:00,
2013-04-11 08:38:00,45.4,32.3,29.96,North,354,1.0,1.0,60,0.00,,,0.31,Wunderground v.1.15,2013-04-11 15:38:00,
2013-04-11 08:43:00,45.7,32.2,29.96,North,352,1.0,1.0,59,0.00,,,0.31,Wunderground v.1.15,2013-04-11 15:43:00,
2013-04-11 08:49:00,46.0,32.0,29.97,NNW,347,0.0,1.0,58,0.00,,,0.31,Wunderground v.1.15,2013-04-11 15:49:00,
2013-04-11 08:54:00,46.2,31.4,29.97,NNW,342,1.0,1.0,56,0.00,,,0.31,Wunderground v.1.15,2013-04-11 15:54:00,
2013-04-11 08:59:00,46.5,32.1,29.97,NW,325,0.0,1.0,57,0.00,,,0.31,Wunderground v.1.15,2013-04-11 15:59:00,
2013-04-11 09:05:00,46.8,30.6,29.97,NW,315,0.0,0.0,53,0.00,,,0.31,Wunderground v.1.15,2013-04-11 16:05:00,
2013-04-11 09:11:00,47.3,31.5,29.97,NW,309,0.0,0.0,54,0.00,,,0.31,Wunderground v.1.15,2013-04-11 16:11:00,
2013-04-11 09:17:00,47.6,31.8,29.97,North,352,0.0,0.0,54,0.00,,,0.31,Wunderground v.1.15,2013-04-11 16:17:00,
2013-04-11 09:22:00,47.9,32.0,29.97,NW,318,0.0,0.0,54,0.00,,,0.31,Wunderground v.1.15,2013-04-11 16:22:00,
2013-04-11 09:27:00,48.1,31.3,29.97,NW,323,0.0,0.0,52,0.00,,,0.31,Wunderground v.1.15,2013-04-11 16:27:00,
2013-04-11 09:32:00,48.5,33.1,29.97,WNW,295,0.0,0.0,55,0.00,,,0.31,Wunderground v.1.15,2013-04-11 16:32:00,
2013-04-11 09:38:00,48.9,33.0,29.97,WNW,290,0.0,0.0,54,0.00,,,0.31,Wunderground v.1.15,2013-04-11 16:38:00,
2013-04-11 09:43:00,49.0,32.1,29.96,WNW,300,0.0,0.0,52,0.00,,,0.31,Wunderground v.1.15,2013-04-11 16:43:00,
2013-04-11 09:48:00,49.1,32.2,29.97,NW,304,0.0,0.0,52,0.00,,,0.31,Wunderground v.1.15,2013-04-11 16:48:00,
2013-04-11 09:54:00,49.5,33.1,29.96,WSW,257,0.0,0.0,53,0.00,,,0.31,Wunderground v.1.15,2013-04-11 16:54:00,
2013-04-11 09:59:00,49.7,33.7,29.96,NW,321,0.0,0.0,54,0.00,,,0.31,Wunderground v.1.15,2013-04-11 16:59:00,
2013-04-11 10:04:00,49.6,33.2,29.96,North,355,0.0,0.0,53,0.00,,,0.31,Wunderground v.1.15,2013-04-11 17:04:00,
2013-04-11 10:09:00,49.9,32.5,29.97,WNW,285,0.0,0.0,51,0.00,,,0.31,Wunderground v.1.15,2013-04-11 17:09:00,
2013-04-11 10:15:00,50.2,33.2,29.97,SW,222,0.0,0.0,52,0.00,,,0.31,Wunderground v.1.15,2013-04-11 17:15:00,
2013-04-11 10:20:00,50.3,32.4,29.97,WNW,303,0.0,0.0,50,0.00,,,0.31,Wunderground v.1.15,2013-04-11 17:20:00,
2013-04-11 10:26:00,50.3,32.4,29.97,West,268,0.0,0.0,50,0.00,,,0.31,Wunderground v.1.15,2013-04-11 17:26:00,
2013-04-11 10:32:00,50.3,34.3,29.97,WSW,252,0.0,0.0,54,0.00,,,0.31,Wunderground v.1.15,2013-04-11 17:32:00,
2013-04-11 10:38:00,50.7,30.1,29.97,NW,311,0.0,0.0,45,0.00,,,0.31,Wunderground v.1.15,2013-04-11 17:38:00,
2013-04-11 10:44:00,51.1,29.9,29.97,West,269,0.0,0.0,44,0.00,,,0.31,Wunderground v.1.15,2013-04-11 17:44:00,
2013-04-11 10:50:00,51.6,30.9,29.96,NW,316,2.0,3.0,45,0.00,,,0.31,Wunderground v.1.15,2013-04-11 17:50:00,
2013-04-11 10:55:00,51.4,30.7,29.97,NW,311,4.0,6.0,45,0.00,,,0.31,Wunderground v.1.15,2013-04-11 17:55:00,
2013-04-11 11:00:00,51.2,31.6,29.96,WNW,290,2.0,2.0,47,0.00,,,0.31,Wunderground v.1.15,2013-04-11 18:00:00,
2013-04-11 11:07:00,51.6,31.5,29.96,NNW,345,0.0,2.0,46,0.00,,,0.31,Wunderground v.1.15,2013-04-11 18:07:00,
2013-04-11 11:13:00,51.7,30.5,29.96,NNW,338,0.0,0.0,44,0.00,,,0.31,Wunderground v.1.15,2013-04-11 18:13:00,
2013-04-11 11:18:00,52.1,31.4,29.96,NNW,338,0.0,0.0,45,0.00,,,0.31,Wunderground v.1.15,2013-04-11 18:18:00,
2013-04-11 11:23:00,52.2,32.6,29.96,NNW,346,0.0,0.0,47,0.00,,,0.31,Wunderground v.1.15,2013-04-11 18:23:00,
2013-04-11 11:29:00,52.2,29.2,29.96,NNW,333,0.0,0.0,41,0.00,,,0.31,Wunderground v.1.15,2013-04-11 18:29:00,
2013-04-11 11:35:00,52.6,29.5,29.96,WSW,240,0.0,0.0,41,0.00,,,0.31,Wunderground v.1.15,2013-04-11 18:35:00,
2013-04-11 11:40:00,53.0,27.4,29.96,WNW,293,0.0,0.0,37,0.00,,,0.31,Wunderground v.1.15,2013-04-11 18:40:00,
2013-04-11 11:46:00,52.8,27.2,29.96,ENE,63,0.0,0.0,37,0.00,,,0.31,Wunderground v.1.15,2013-04-11 18:46:00,
2013-04-11 11:51:00,52.7,27.8,29.96,NNE,14,0.0,0.0,38,0.00,,,0.31,Wunderground v.1.15,2013-04-11 18:51:00,
2013-04-11 11:57:00,53.4,27.8,29.95,South,184,0.0,0.0,37,0.00,,,0.31,Wunderground v.1.15,2013-04-11 18:57:00,
2013-04-11 12:02:00,53.9,27.5,29.95,North,10,0.0,0.0,36,0.00,,,0.31,Wunderground v.1.15,2013-04-11 19:02:00,
2013-04-11 12:08:00,53.9,27.5,29.95,NNE,31,0.0,0.0,36,0.00,,,0.31,Wunderground v.1.15,2013-04-11 19:08:00,
2013-04-11 12:14:00,53.9,28.2,29.94,NNE,23,0.0,0.0,37,0.00,,,0.31,Wunderground v.1.15,2013-04-11 19:14:00,
2013-04-11 12:19:00,54.0,28.3,29.94,NNE,21,0.0,0.0,37,0.00,,,0.31,Wunderground v.1.15,2013-04-11 19:19:00,
2013-04-11 12:24:00,54.3,27.9,29.94,North,357,0.0,0.0,36,0.00,,,0.31,Wunderground v.1.15,2013-04-11 19:24:00,
2013-04-11 12:30:00,54.2,27.1,29.94,NNW,329,0.0,0.0,35,0.00,,,0.31,Wunderground v.1.15,2013-04-11 19:30:00,
2013-04-11 12:35:00,54.9,29.7,29.93,WNW,284,0.0,0.0,38,0.00,,,0.31,Wunderground v.1.15,2013-04-11 19:35:00,
2013-04-11 12:41:00,55.5,29.6,29.93,NNE,18,0.0,0.0,37,0.00,,,0.31,Wunderground v.1.15,2013-04-11 19:41:00,
2013-04-11 12:47:00,55.3,28.1,29.92,NNE,25,0.0,0.0,35,0.00,,,0.31,Wunderground v.1.15,2013-04-11 19:47:00,
2013-04-11 12:52:00,55.1,26.5,29.92,WSW,243,0.0,0.0,33,0.00,,,0.31,Wunderground v.1.15,2013-04-11 19:52:00,
2013-04-11 12:58:00,55.5,27.6,29.92,ENE,59,0.0,0.0,34,0.00,,,0.31,Wunderground v.1.15,2013-04-11 19:58:00,
2013-04-11 13:04:00,55.7,27.7,29.91,SW,220,0.0,0.0,34,0.00,,,0.31,Wunderground v.1.15,2013-04-11 20:04:00,
2013-04-11 13:10:00,57.0,30.3,29.91,NNE,13,0.0,0.0,36,0.00,,,0.31,Wunderground v.1.15,2013-04-11 20:10:00,
2013-04-11 13:15:00,56.5,27.0,29.91,WNW,300,0.0,0.0,32,0.00,,,0.31,Wunderground v.1.15,2013-04-11 20:15:00,
2013-04-11 13:20:00,56.8,28.0,29.91,WSW,257,0.0,0.0,33,0.00,,,0.31,Wunderground v.1.15,2013-04-11 20:20:00,
2013-04-11 13:26:00,57.3,30.5,29.90,WSW,242,0.0,0.0,36,0.00,,,0.31,Wunderground v.1.15,2013-04-11 20:26:00,
2013-04-11 13:32:00,57.2,27.6,29.90,NW,315,0.0,0.0,32,0.00,,,0.31,Wunderground v.1.15,2013-04-11 20:32:00,
2013-04-11 13:37:00,57.0,26.6,29.90,North,357,0.0,0.0,31,0.00,,,0.31,Wunderground v.1.15,2013-04-11 20:37:00,
2013-04-11 13:43:00,57.3,26.9,29.90,SW,226,0.0,0.0,31,0.00,,,0.31,Wunderground v.1.15,2013-04-11 20:43:00,
2013-04-11 13:48:00,57.3,26.1,29.89,WSW,241,0.0,0.0,30,0.00,,,0.31,Wunderground v.1.15,2013-04-11 20:48:00,
2013-04-11 13:54:00,57.4,25.4,29.89,WSW,252,0.0,0.0,29,0.00,,,0.31,Wunderground v.1.15,2013-04-11 20:54:00,
2013-04-11 14:00:00,58.2,26.9,29.88,SSW,212,0.0,0.0,30,0.00,,,0.31,Wunderground v.1.15,2013-04-11 21:00:00,
2013-04-11 14:07:00,59.0,27.6,29.88,SW,217,0.0,0.0,30,0.00,,,0.31,Wunderground v.1.15,2013-04-11 21:07:00,
2013-04-11 14:12:00,58.8,26.6,29.88,West,265,0.0,0.0,29,0.00,,,0.31,Wunderground v.1.15,2013-04-11 21:12:00,
2013-04-11 14:18:00,59.1,28.5,29.88,West,268,0.0,0.0,31,0.00,,,0.31,Wunderground v.1.15,2013-04-11 21:18:00,
2013-04-11 14:24:00,58.8,28.2,29.87,WSW,252,0.0,0.0,31,0.00,,,0.31,Wunderground v.1.15,2013-04-11 21:24:00,
2013-04-11 14:30:00,59.2,27.7,29.87,SE,141,0.0,0.0,30,0.00,,,0.31,Wunderground v.1.15,2013-04-11 21:30:00,
2013-04-11 14:35:00,59.1,27.7,29.87,WSW,251,0.0,0.0,30,0.00,,,0.31,Wunderground v.1.15,2013-04-11 21:35:00,
2013-04-11 14:40:00,59.2,27.7,29.87,SSE,166,0.0,0.0,30,0.00,,,0.31,Wunderground v.1.15,2013-04-11 21:40:00,
2013-04-11 14:46:00,59.0,28.4,29.86,ESE,117,0.0,0.0,31,0.00,,,0.31,Wunderground v.1.15,2013-04-11 21:46:00,
2013-04-11 14:52:00,58.8,28.2,29.86,ESE,111,0.0,0.0,31,0.00,,,0.31,Wunderground v.1.15,2013-04-11 21:52:00,
2013-04-11 14:57:00,58.5,27.9,29.86,ENE,70,0.0,0.0,31,0.00,,,0.31,Wunderground v.1.15,2013-04-11 21:57:00,
2013-04-11 15:02:00,58.3,27.8,29.86,East,94,0.0,0.0,31,0.00,,,0.31,Wunderground v.1.15,2013-04-11 22:02:00,
2013-04-11 15:08:00,58.8,27.4,29.86,NW,311,0.0,0.0,30,0.00,,,0.31,Wunderground v.1.15,2013-04-11 22:08:00,
2013-04-11 15:14:00,59.3,27.0,29.85,SE,131,0.0,0.0,29,0.00,,,0.31,Wunderground v.1.15,2013-04-11 22:14:00,
2013-04-11 15:20:00,59.6,28.1,29.85,WSW,245,0.0,0.0,30,0.00,,,0.31,Wunderground v.1.15,2013-04-11 22:20:00,
2013-04-11 15:26:00,60.4,28.0,29.85,NW,321,0.0,0.0,29,0.00,,,0.31,Wunderground v.1.15,2013-04-11 22:26:00,
2013-04-11 15:31:00,60.3,25.2,29.85,WNW,285,0.0,0.0,26,0.00,,,0.31,Wunderground v.1.15,2013-04-11 22:31:00,
2013-04-11 15:37:00,59.8,25.7,29.85,North,4,0.0,0.0,27,0.00,,,0.31,Wunderground v.1.15,2013-04-11 22:37:00,
2013-04-11 15:43:00,59.8,24.8,29.85,NW,312,0.0,0.0,26,0.00,,,0.31,Wunderground v.1.15,2013-04-11 22:43:00,
2013-04-11 15:49:00,60.9,22.8,29.85,NW,316,0.0,0.0,23,0.00,,,0.31,Wunderground v.1.15,2013-04-11 22:49:00,
2013-04-11 15:54:00,61.2,20.9,29.85,West,266,0.0,0.0,21,0.00,,,0.31,Wunderground v.1.15,2013-04-11 22:54:00,
2013-04-11 16:00:00,61.3,22.1,29.85,West,275,0.0,0.0,22,0.00,,,0.31,Wunderground v.1.15,2013-04-11 23:00:00,
2013-04-11 16:06:00,61.6,21.2,29.84,West,264,0.0,0.0,21,0.00,,,0.31,Wunderground v.1.15,2013-04-11 23:06:00,
2013-04-11 16:11:00,61.5,20.0,29.84,NW,316,0.0,0.0,20,0.00,,,0.31,Wunderground v.1.15,2013-04-11 23:11:00,
2013-04-11 16:17:00,61.4,18.7,29.84,WSW,250,0.0,0.0,19,0.00,,,0.31,Wunderground v.1.15,2013-04-11 23:17:00,
2013-04-11 16:23:00,61.7,20.2,29.83,SW,234,0.0,0.0,20,0.00,,,0.31,Wunderground v.1.15,2013-04-11 23:23:00,
2013-04-11 16:29:00,61.9,20.3,29.83,West,278,0.0,0.0,20,0.00,,,0.31,Wunderground v.1.15,2013-04-11 23:29:00,
2013-04-11 16:34:00,62.2,19.4,29.83,WSW,248,0.0,0.0,19,0.00,,,0.31,Wunderground v.1.15,2013-04-11 23:34:00,
2013-04-11 16:40:00,61.6,20.1,29.83,West,269,0.0,0.0,20,0.00,,,0.31,Wunderground v.1.15,2013-04-11 23:40:00,
2013-04-11 16:45:00,61.8,20.3,29.83,WNW,293,0.0,0.0,20,0.00,,,0.31,Wunderground v.1.15,2013-04-11 23:45:00,
2013-04-11 16:52:00,61.7,20.2,29.82,WSW,248,0.0,0.0,20,0.00,,,0.31,Wunderground v.1.15,2013-04-11 23:52:00,
2013-04-11 16:58:00,61.8,20.3,29.82,NNE,13,0.0,0.0,20,0.00,,,0.31,Wunderground v.1.15,2013-04-11 23:58:00,
2013-04-11 17:03:00,61.6,20.1,29.82,WNW,294,0.0,0.0,20,0.00,,,0.31,Wunderground v.1.15,2013-04-12 00:03:00,
2013-04-11 17:08:00,61.7,20.2,29.82,WNW,300,0.0,0.0,20,0.00,,,0.31,Wunderground v.1.15,2013-04-12 00:08:00,
2013-04-11 17:14:00,62.2,21.7,29.82,West,261,0.0,0.0,21,0.00,,,0.31,Wunderground v.1.15,2013-04-12 00:14:00,
2013-04-11 17:19:00,62.5,22.0,29.82,North,349,0.0,0.0,21,0.00,,,0.31,Wunderground v.1.15,2013-04-12 00:19:00,
2013-04-11 17:25:00,61.6,21.2,29.82,NNW,330,0.0,0.0,21,0.00,,,0.31,Wunderground v.1.15,2013-04-12 00:25:00,
2013-04-11 17:31:00,61.4,22.2,29.82,ESE,110,0.0,0.0,22,0.00,,,0.31,Wunderground v.1.15,2013-04-12 00:31:00,
2013-04-11 17:36:00,61.6,22.3,29.82,WNW,294,0.0,0.0,22,0.00,,,0.31,Wunderground v.1.15,2013-04-12 00:36:00,
2013-04-11 17:42:00,61.8,22.5,29.82,NW,322,0.0,0.0,22,0.00,,,0.31,Wunderground v.1.15,2013-04-12 00:42:00,
2013-04-11 17:47:00,61.8,22.5,29.82,NW,311,0.0,0.0,22,0.00,,,0.31,Wunderground v.1.15,2013-04-12 00:47:00,
2013-04-11 17:53:00,62.1,23.8,29.82,North,350,0.0,0.0,23,0.00,,,0.31,Wunderground v.1.15,2013-04-12 00:53:00,
2013-04-11 17:58:00,62.2,22.8,29.82,WNW,289,0.0,0.0,22,0.00,,,0.31,Wunderground v.1.15,2013-04-12 00:58:00,
2013-04-11 18:04:00,62.1,23.8,29.82,NNE,12,0.0,0.0,23,0.00,,,0.31,Wunderground v.1.15,2013-04-12 01:04:00,
2013-04-11 18:10:00,62.0,23.7,29.82,NNW,345,0.0,0.0,23,0.00,,,0.31,Wunderground v.1.15,2013-04-12 01:10:00,
2013-04-11 18:17:00,62.2,23.9,29.82,NW,304,0.0,0.0,23,0.00,,,0.31,Wunderground v.1.15,2013-04-12 01:17:00,
2013-04-11 18:23:00,62.2,22.8,29.82,NNW,333,0.0,0.0,22,0.00,,,0.31,Wunderground v.1.15,2013-04-12 01:23:00,
2013-04-11 18:29:00,62.0,22.7,29.82,North,353,0.0,0.0,22,0.00,,,0.31,Wunderground v.1.15,2013-04-12 01:29:00,
2013-04-11 18:35:00,61.9,21.5,29.82,North,10,0.0,0.0,21,0.00,,,0.31,Wunderground v.1.15,2013-04-12 01:35:00,
2013-04-11 18:40:00,61.8,22.5,29.82,NW,317,0.0,0.0,22,0.00,,,0.31,Wunderground v.1.15,2013-04-12 01:40:00,
2013-04-11 18:48:00,61.7,21.3,29.82,NW,312,0.0,0.0,21,0.00,,,0.31,Wunderground v.1.15,2013-04-12 01:48:00,
2013-04-11 18:53:00,61.7,20.2,29.82,NW,316,0.0,0.0,20,0.00,,,0.31,Wunderground v.1.15,2013-04-12 01:53:00,
2013-04-11 18:59:00,61.8,22.5,29.82,West,271,0.0,0.0,22,0.00,,,0.31,Wunderground v.1.15,2013-04-12 01:59:00,
2013-04-11 19:05:00,61.9,23.6,29.82,NW,321,0.0,0.0,23,0.00,,,0.31,Wunderground v.1.15,2013-04-12 02:05:00,
2013-04-11 19:12:00,61.3,22.1,29.83,WNW,300,0.0,0.0,22,0.00,,,0.31,Wunderground v.1.15,2013-04-12 02:12:00,
2013-04-11 19:17:00,60.9,23.8,29.83,WNW,302,0.0,0.0,24,0.00,,,0.31,Wunderground v.1.15,2013-04-12 02:17:00,
2013-04-11 19:22:00,60.5,23.5,29.83,NW,311,0.0,0.0,24,0.00,,,0.31,Wunderground v.1.15,2013-04-12 02:22:00,
2013-04-11 19:28:00,59.8,25.7,29.83,NW,311,0.0,0.0,27,0.00,,,0.31,Wunderground v.1.15,2013-04-12 02:28:00,
2013-04-11 19:34:00,59.5,25.5,29.83,NW,319,0.0,0.0,27,0.00,,,0.31,Wunderground v.1.15,2013-04-12 02:34:00,
2013-04-11 19:39:00,59.1,26.0,29.82,North,353,0.0,0.0,28,0.00,,,0.31,Wunderground v.1.15,2013-04-12 02:39:00,
2013-04-11 19:45:00,58.6,27.2,29.83,North,10,0.0,0.0,30,0.00,,,0.31,Wunderground v.1.15,2013-04-12 02:45:00,
2013-04-11 19:50:00,58.6,26.4,29.83,North,10,0.0,0.0,29,0.00,,,0.31,Wunderground v.1.15,2013-04-12 02:50:00,
2013-04-11 19:56:00,58.5,26.3,29.83,North,3,0.0,0.0,29,0.00,,,0.31,Wunderground v.1.15,2013-04-12 02:56:00,
2013-04-11 20:02:00,58.2,26.9,29.83,NNW,328,0.0,0.0,30,0.00,,,0.31,Wunderground v.1.15,2013-04-12 03:02:00,
2013-04-11 20:08:00,57.6,27.9,29.83,NNW,346,0.0,0.0,32,0.00,,,0.31,Wunderground v.1.15,2013-04-12 03:08:00,
2013-04-11 20:14:00,57.4,26.2,29.83,NNW,342,0.0,0.0,30,0.00,,,0.31,Wunderground v.1.15,2013-04-12 03:14:00,
2013-04-11 20:20:00,57.1,27.5,29.83,NNW,339,0.0,0.0,32,0.00,,,0.31,Wunderground v.1.15,2013-04-12 03:20:00,
2013-04-11 20:26:00,56.8,27.2,29.84,NNW,339,0.0,0.0,32,0.00,,,0.31,Wunderground v.1.15,2013-04-12 03:26:00,
2013-04-11 20:31:00,57.0,28.1,29.84,NW,321,0.0,0.0,33,0.00,,,0.31,Wunderground v.1.15,2013-04-12 03:31:00,
2013-04-11 20:36:00,56.5,28.4,29.84,NW,321,0.0,0.0,34,0.00,,,0.31,Wunderground v.1.15,2013-04-12 03:36:00,
2013-04-11 20:41:00,56.1,27.4,29.84,NW,322,0.0,0.0,33,0.00,,,0.31,Wunderground v.1.15,2013-04-12 03:41:00,
2013-04-11 20:46:00,56.3,27.5,29.85,WNW,282,0.0,0.0,33,0.00,,,0.31,Wunderground v.1.15,2013-04-12 03:46:00,
2013-04-11 20:51:00,55.5,27.6,29.85,WNW,296,0.0,0.0,34,0.00,,,0.31,Wunderground v.1.15,2013-04-12 03:51:00,
2013-04-11 20:57:00,55.3,28.1,29.86,WNW,300,0.0,0.0,35,0.00,,,0.31,Wunderground v.1.15,2013-04-12 03:57:00,
2013-04-11 21:00:00,55.4,26.7,29.86,WNW,297,0.0,0.0,33,0.00,,,0.31,Wunderground v.1.15,2013-04-12 04:00:00,
2013-04-11 21:03:00,55.3,28.1,29.86,NW,304,0.0,0.0,35,0.00,,,0.31,Wunderground v.1.15,2013-04-12 04:03:00,
2013-04-11 21:06:00,55.1,27.9,29.87,WNW,300,0.0,0.0,35,0.00,,,0.31,Wunderground v.1.15,2013-04-12 04:06:00,
2013-04-11 21:11:00,54.6,27.5,29.87,WNW,290,0.0,0.0,35,0.00,,,0.31,Wunderground v.1.15,2013-04-12 04:11:00,
2013-04-11 21:17:00,54.4,27.3,29.88,WNW,297,0.0,0.0,35,0.00,,,0.31,Wunderground v.1.15,2013-04-12 04:17:00,
2013-04-11 21:22:00,54.1,27.7,29.88,West,276,0.0,0.0,36,0.00,,,0.31,Wunderground v.1.15,2013-04-12 04:22:00,
2013-04-11 21:27:00,53.6,27.9,29.88,WNW,282,0.0,0.0,37,0.00,,,0.31,Wunderground v.1.15,2013-04-12 04:27:00,
2013-04-11 21:33:00,53.4,27.8,29.87,WNW,285,0.0,0.0,37,0.00,,,0.31,Wunderground v.1.15,2013-04-12 04:33:00,
2013-04-11 21:39:00,53.5,27.8,29.88,WNW,297,0.0,0.0,37,0.00,,,0.31,Wunderground v.1.15,2013-04-12 04:39:00,
2013-04-11 21:45:00,53.2,28.9,29.88,WNW,301,0.0,0.0,39,0.00,,,0.31,Wunderground v.1.15,2013-04-12 04:45:00,
2013-04-11 21:50:00,53.2,28.9,29.88,WNW,303,0.0,0.0,39,0.00,,,0.31,Wunderground v.1.15,2013-04-12 04:50:00,
2013-04-11 21:56:00,53.0,28.7,29.88,NNW,335,0.0,0.0,39,0.00,,,0.31,Wunderground v.1.15,2013-04-12 04:56:00,
2013-04-11 22:01:00,52.9,28.6,29.88,WNW,300,0.0,0.0,39,0.00,,,0.31,Wunderground v.1.15,2013-04-12 05:01:00,
2013-04-11 22:06:00,52.7,28.4,29.88,NNW,328,0.0,0.0,39,0.00,,,0.31,Wunderground v.1.15,2013-04-12 05:06:00,
2013-04-11 22:12:00,52.4,28.8,29.88,NNW,338,0.0,0.0,40,0.00,,,0.31,Wunderground v.1.15,2013-04-12 05:12:00,
2013-04-11 22:17:00,52.3,28.7,29.88,NNW,344,0.0,0.0,40,0.00,,,0.31,Wunderground v.1.15,2013-04-12 05:17:00,
2013-04-11 22:23:00,51.9,29.5,29.88,NNW,343,0.0,0.0,42,0.00,,,0.31,Wunderground v.1.15,2013-04-12 05:23:00,
2013-04-11 22:29:00,51.4,29.6,29.88,NW,311,0.0,0.0,43,0.00,,,0.31,Wunderground v.1.15,2013-04-12 05:29:00,
2013-04-11 22:35:00,51.0,28.1,29.88,NW,311,0.0,0.0,41,0.00,,,0.31,Wunderground v.1.15,2013-04-12 05:35:00,
2013-04-11 22:41:00,51.0,30.9,29.88,West,263,0.0,0.0,46,0.00,,,0.31,Wunderground v.1.15,2013-04-12 05:41:00,
2013-04-11 22:46:00,49.9,31.0,29.88,WSW,258,0.0,1.0,48,0.00,,,0.31,Wunderground v.1.15,2013-04-12 05:46:00,
2013-04-11 22:52:00,49.5,30.1,29.89,West,259,0.0,0.0,47,0.00,,,0.31,Wunderground v.1.15,2013-04-12 05:52:00,
2013-04-11 22:57:00,49.5,30.6,29.88,WSW,258,0.0,0.0,48,0.00,,,0.31,Wunderground v.1.15,2013-04-12 05:57:00,
2013-04-11 23:02:00,49.2,29.8,29.88,WSW,257,0.0,0.0,47,0.00,,,0.31,Wunderground v.1.15,2013-04-12 06:02:00,
2013-04-11 23:08:00,49.1,29.2,29.88,WSW,258,0.0,0.0,46,0.00,,,0.31,Wunderground v.1.15,2013-04-12 06:08:00,
2013-04-11 23:14:00,49.3,28.8,29.88,WSW,258,0.0,0.0,45,0.00,,,0.31,Wunderground v.1.15,2013-04-12 06:14:00,
2013-04-11 23:20:00,49.5,28.5,29.88,WSW,258,0.0,0.0,44,0.00,,,0.31,Wunderground v.1.15,2013-04-12 06:20:00,
2013-04-11 23:26:00,49.5,28.5,29.88,WSW,246,0.0,0.0,44,0.00,,,0.31,Wunderground v.1.15,2013-04-12 06:26:00,
2013-04-11 23:32:00,49.5,28.5,29.88,WSW,245,0.0,0.0,44,0.00,,,0.31,Wunderground v.1.15,2013-04-12 06:32:00,
2013-04-11 23:37:00,49.1,29.7,29.88,WSW,245,0.0,0.0,47,0.00,,,0.31,Wunderground v.1.15,2013-04-12 06:37:00,
2013-04-11 23:42:00,48.8,28.9,29.88,WSW,245,0.0,0.0,46,0.00,,,0.31,Wunderground v.1.15,2013-04-12 06:42:00,
2013-04-11 23:48:00,48.4,29.1,29.88,WSW,245,0.0,0.0,47,0.00,,,0.31,Wunderground v.1.15,2013-04-12 06:48:00,
2013-04-11 23:53:00,48.6,28.2,29.88,WSW,253,0.0,0.0,45,0.00,,,0.31,Wunderground v.1.15,2013-04-12 06:53:00,
2013-04-11 23:58:00,49.1,27.5,29.88,West,275,0.0,0.0,43,0.00,,,0.31,Wunderground v.1.15,2013-04-12 06:58:00,